This is the latest recevied weather packets stored in our database for station/object DH5DY-6. If no packets are shown the sender has not sent any weather packets the latest 10 day(s).
| Time | Temp. | Humidity | Pressure | Rain* | Wind** | Luminosity | Snow |
|---|---|---|---|---|---|---|---|
| 1787984554 | 11.67° C | 95% | 1011.7 hPa | 0 mm | - | 42 W/m² | - |
| 1787983955 | 11.67° C | 95% | 1011.7 hPa | 0 mm | - | 69 W/m² | - |
| 1787982754 | 11.11° C | 95% | 1011.6 hPa | 0 mm | - | 76 W/m² | - |
| 1787982155 | 11.11° C | 95% | 1011.6 hPa | 0 mm | - | 58 W/m² | - |
| 1787980954 | 11.11° C | 95% | 1011.5 hPa | 0 mm | - | 40 W/m² | - |
| 1787980355 | 11.11° C | 95% | 1011.5 hPa | 0 mm | - | 26 W/m² | - |
| 1787979155 | 10.56° C | 95% | 1011.4 hPa | 0 mm | - | 7 W/m² | - |
| 1787978555 | 10.56° C | 95% | 1011.5 hPa | 0 mm | - | 0 W/m² | - |
| 1787976755 | 10.56° C | 94% | 1011.5 hPa | 0 mm | - | 0 W/m² | - |
| 1787975555 | 10.56° C | 94% | 1011.5 hPa | 0 mm | - | 0 W/m² | - |
| 1787974955 | 10.56° C | 94% | 1011.6 hPa | 0 mm | - | 0 W/m² | - |
| 1787973154 | 11.11° C | 94% | 1011.6 hPa | 0 mm | - | 0 W/m² | - |
| 1787971955 | 11.11° C | 94% | 1011.7 hPa | 0 mm | - | 0 W/m² | - |
| 1787971355 | 11.11° C | 94% | 1011.7 hPa | 0 mm | - | 0 W/m² | - |
| 1787970152 | 11.67° C | 94% | 1011.7 hPa | 0 mm | - | 0 W/m² | - |
| 1787969555 | 11.67° C | 94% | 1011.6 hPa | 0 mm | - | 0 W/m² | - |
| 1787968355 | 12.22° C | 94% | 1011.7 hPa | 0 mm | - | 0 W/m² | - |
| 1787967752 | 12.22° C | 94% | 1011.8 hPa | 0 mm | - | 0 W/m² | - |
| 1787966555 | 12.22° C | 94% | 1011.6 hPa | 0 mm | - | 0 W/m² | - |
| 1787965955 | 12.22° C | 94% | 1011.6 hPa | 0 mm | - | 0 W/m² | - |
| 1787964752 | 12.78° C | 93% | 1011.6 hPa | 0 mm | - | 0 W/m² | - |
| 1787964155 | 12.78° C | 93% | 1011.6 hPa | 0 mm | - | 0 W/m² | - |
| 1787962952 | 12.78° C | 94% | 1011.5 hPa | 0 mm | - | 0 W/m² | - |
| 1787962352 | 13.33° C | 93% | 1011.5 hPa | 0 mm | - | 0 W/m² | - |
| 1787961151 | 13.33° C | 93% | 1011.4 hPa | 0 mm | - | 0 W/m² | - |
* Rain latest hour (hover to see other rain measurements)
** Current wind speed in m/s (hover to see current wind gust speed)